Location: Penton Mewsey
(51.2167°N, 1.5167°W)
Time: 22:35:43
(UTC+00:00)

Envisat - Pass Details

Date: 11 March 2021
Orbit: 764 x 766 km, 98.1° (Epoch: 22 April)

Event Time Altitude Azimuth Distance (km) Brightness Sun altitude
Rises 04:59:36 0° 21° (NNE) 3,247 6.8 -14.7°
Reaches altitude 10° 05:02:12 10° 33° (NNE) 2,315 6.1 -14.3°
Maximum altitude 05:06:40 30° 94° (E) 1,360 5.1 -13.6°
Drops below altitude 10° 05:11:05 10° 154° (SSE) 2,298 5.7 -13.0°
Sets 05:13:38 0° 166° (SSE) 3,219 6.3 -12.6°
